Regional Weather Roundup
Issued by NWS

Home | Current Version | Previous Version | Text Only | Print | Product List | Glossary Off
Versions: 1 2 3 4 5 6 7 8 9 10 11 12 13 14 15 16 17 18 19 20 21 22 23 24 25 26 27 28 29 30 31 32 33 34 35 36 37 38 39 40 41 42 43 44 45 46 47 48 49 50

000
ASUS43 KLMK 281610
RWRKY
KENTUCKY REGIONAL WEATHER ROUNDUP
NATIONAL WEATHER SERVICE LOUISVILLE KY
1100 AM EST SAT FEB 28 2015

NOTE "FAIR" INDICATES FEW OR NO CLOUDS BELOW 12,000 FEET
WITH NO SIGNIFICANT WEATHER AND/OR OBSTRUCTIONS TO VISIBILITY.

KYZ001>023-026-027-061>063-070>075-281700-
WESTERN AND SOUTH CENTRAL KENTUCKY

CITY           SKY/WX    TMP DP  RH WIND       PRES   REMARKS
PADUCAH        CLOUDY    25  12  58 E8        30.62F WCI  16
HENDERSON      CLOUDY    25  12  58 E8        30.66F WCI  16
OWENSBORO      PTSUNNY   25  11  55 E7        30.67F WCI  17
HOPKINSVILLE   PTSUNNY   26  13  57 E9        30.61F WCI  17
BOWLING GREEN  CLOUDY    30  13  49 NE8       30.65S WCI  22
GLASGOW        CLOUDY    28  13  53 E6        30.64R WCI  22
$$

KYZ024-025-028>034-038-045-046-053-281700-
NORTH CENTRAL KENTUCKY

CITY           SKY/WX    TMP DP  RH WIND       PRES   REMARKS
LOUISVILLE/SDF PTSUNNY   25   9  50 VRB5      30.69F WCI  19
LOUISVILLE/LOU CLOUDY    24   8  50 E5        30.70F WCI  18
FORT KNOX      CLOUDY    25   9  51 NE7       30.65S WCI  17
$$

KYZ035>037-039>044-047>052-055>060-089>105-281700-
NORTHEAST KENTUCKY

CITY           SKY/WX    TMP DP  RH WIND       PRES   REMARKS
LEXINGTON      CLOUDY    24   9  52 E8        30.66F WCI  15
COVINGTON      PTSUNNY   19   4  51 E8        30.70F WCI   9
FRANKFORT        N/A     22   9  57 E8        30.67F WCI  12
$$

KYZ054-064>069-076>088-106>120-281700-
SOUTHEAST KENTUCKY

CITY           SKY/WX    TMP DP  RH WIND       PRES   REMARKS
JACKSON        SUNNY     28  10  46 VRB3      30.63S
LONDON         MOSUNNY   28  10  46 E3        30.62S
SOMERSET       PTSUNNY   30  12  47 E3        30.65F
MIDDLESBORO    CLOUDY    32  15  50 CALM      30.63R
MONTICELLO     MOSUNNY   31  15  51 E5        30.65F WCI  26
$$




USA.gov is the U.S. government's official web portal to all federal, state and local government web resources and services.